OBJECT A, 63982

Orbit data source: Space-Track

You're viewing an Uncataloged Satellite

Recently launched and/or uncataloged satellites may have evolving metadata. Metadata may include but not limited to: Owner, Maufacturer, Bus, Motor, and Mission.

OBJECT A, 63982 is a Chinese satellite in SSO that was launched on Wed, 14 May 2025 UTC via a CHANG ZHENG 2D launch vehicle from the Jiuquan Satellite Launch Center, China (JSC). Unknown objects in Earth's orbit typically refer to objects detected orbiting the Earth but have not yet been identified or cataloged. These objects could be anything from previously untracked satellites, spent rocket stages, debris from satellite collisions, or even natural meteoroids temporarily captured by Earth's gravity.

Loading next visibility...
Identifier
63982, 2025-100A
Orbit
SSO
Last TLE update
8 hours ago
Origin
Flag of CNCN / PRC
Manufacturer
Unknown
Mission
Operational Commercial Technology
Bus & Motor
Unknown
Mass
Unknown
Launch date (UTC)
2025-05-14 (3 months ago)
Launch vehicle
CHANG ZHENG 2D
Launch site
Jiuquan Satellite Launch Center, China (JSC)
Object type
Unknown
Shape & HBR
Box + 2 Pan, 0.3 m
Radar Cross Section
0.195 m², Medium (>0.1 m² and < 1m²)

Expand to show TLE details & history

TLE from 8 hours ago
0 OBJECT A
1 63982U 25100A   25211.18331967  .00009623  00000-0  45779-3 0  9990
2 63982  97.4030 285.4004 0010889  61.9103 298.3231 15.19331504 11701
Epoch: 2025-07-30T04:23Z
TLE epoch observation values (Epoch: 2025-07-30T04:23:58.819Z)
Latitude
-0.00005°
Longitude
-88.66088°
Altitude
507.397 km
Speed
7.612 km/s
True Right ascension
19h 01m 36s
True Declination
0° 00' 00"
Sunlit
Object was in full shadow at epoch
Visualization orbit readout
Latitude
70.77826°
Longitude
113.43405°
Altitude
514.975 km
Speed
7.616 km/s
Apparent Right ascension
12h 41m 53s
Apparent Declination
23° 44' 10"
Sunlit
Object is in daylight
Visualization observer readout
Local Sidereal Time
02:19:40
Azimuth
24.186° NE
Elevation
-22.388°
Doppler factor
1
Orbital elements
Apogee altitude
512.321 km
Perigee altitude
497.331 km
Semi-major axis
6,882.963 km
Eccentricity
0.00109
Inclination
97.403°
RAAN
285.4004°
Arg. of periapsis
61.9103°
True anomaly
298.21319°
Mean anomaly
298.3231°
Eccentric anomaly
298.26815°
Mean motion
3.80084 °/min
Orbital period
94.72 mins
BSTAR
0.00045779
Loading maneuver chart data...
Loading SW <> Apogee altitude chart data...
Loading historical data...
Loading historical data...
Loading historical data...
Loading historical data...
Loading historical data...
Loading historical data...
Loading historical data...
|